[[{"header":{"parameterUnit":"m.s-1","parameterCategory":1,"la1":30.2991,"la2":30.254,"lo1":-89.0895,"lo2":-89.0444,"dy":0.0017,"dx":0.0017,"nx":28,"ny":28,"refTime":"2024-12-12T03:00:00:Z","depth":0,"parameterNumber":2,"parameterNumberName":"U-component_of_WINDS"},"data":[0,0,0,0,0,0,0,0,0,0,0,0,0,0,0,0,0,0,0,0,0,0,0,0,0,0,0,0,0,0,0,0,0,0,0,0,0,0,0,0,0,0,0,0,0,0,0,0,0,0,0,0,0,0,0,0,0,0,3.2496,3.2496,0,3.2515,3.2515,3.2515,3.2489,3.2488,3.2487,3.2486,3.2505,3.2506,3.2508,0,0,0,0,0,0,0,0,0,0,0,0,0,3.2438,3.244,3.2496,3.2496,3.2496,3.2515,3.2515,3.2515,3.2489,3.2488,3.2487,3.2486,3.2505,3.2506,3.2508,0,0,0,0,0,0,0,0,0,0,0,0,0,3.2461,3.244,3.2496,3.2486,3.2485,3.2515,3.2515,3.2515,3.2489,3.2488,3.2486,3.2485,3.2504,3.2506,3.2508,3.2549,0,0,3.2514,3.2515,0,0,0,0,0,0,0,0,3.246,3.2463,3.2487,3.2486,3.2486,3.2498,3.2502,3.2527,3.249,3.2488,3.2486,3.2484,3.2504,3.2506,3.2512,3.255,3.255,3.2515,3.2516,3.2517,3.2517,0,0,0,0,0,0,0,3.2458,3.2462,3.2503,3.2487,3.2486,3.248,3.2482,3.2506,3.2503,3.2488,3.2486,3.2488,3.2503,3.251,3.2513,3.2551,3.2514,3.2516,3.2518,3.2518,3.2624,3.2626,0,0,0,0,0,0,3.2458,3.2461,3.2503,3.2504,3.2469,3.2483,3.2484,3.2495,3.2503,3.2503,3.249,3.2487,3.2508,3.251,3.2513,3.2562,3.2517,3.2519,3.252,3.2623,3.2625,3.2626,0,0,0,0,0,0,3.2457,3.2462,3.2502,3.2482,3.2487,3.2485,3.2498,3.2497,3.2504,3.2504,3.2504,3.2497,3.2507,3.251,3.2541,3.2563,3.252,3.2521,3.2621,3.2623,3.2625,3.266,0,0,0,0,0,0,3.2455,3.2461,3.2477,3.2483,3.2488,3.2529,3.2499,3.2498,3.2507,3.2504,3.2512,3.2512,3.2506,3.2538,3.2543,3.2565,3.2523,3.2619,3.2622,3.2625,3.2657,3.2663,3.2669,0,0,0,0,0,3.2453,3.2485,3.2477,3.2483,3.2507,3.253,3.2533,3.2526,3.2509,3.2525,3.2526,3.2511,3.256,3.2541,3.2546,3.2569,3.2617,3.2621,3.2624,3.2654,3.2662,3.2669,0,0,0,0,0,0,3.2481,3.2486,3.2477,3.2512,3.2521,3.2526,3.2545,3.2534,3.2548,3.2544,3.2535,3.2537,3.2569,3.2572,3.2552,3.261,3.2586,3.259,3.2607,3.2614,3.262,3.2618,3.2525,0,0,0,0,0,3.2492,3.251,3.2513,3.2544,3.2549,3.2546,3.2556,3.255,3.2559,3.2562,3.2565,3.2574,3.2592,3.2603,3.2619,3.2658,3.2659,3.2676,3.2682,3.2687,3.2691,3.2713,3.2721,3.2638,3.2638,3.2638,0,0,3.2513,3.2518,3.253,3.255,3.2556,3.2576,3.2549,3.2571,3.2586,3.2565,3.2594,3.2597,3.2607,3.2642,3.2657,3.2645,3.2715,3.2692,3.2695,3.2697,3.2718,3.2726,3.2733,3.264,3.264,3.2639,0,0,3.2562,3.2567,3.2594,3.2601,3.2611,3.2609,3.2616,3.2623,3.2624,3.2653,3.2638,3.2656,3.2686,3.2694,3.2702,3.2756,3.2744,3.2762,3.2792,3.2814,3.2821,3.2826,3.2846,3.2854,3.2766,3.2766,3.2766,0,3.2587,3.2616,3.2609,3.2632,3.2642,3.2625,3.2652,3.266,3.2674,3.2681,3.2668,3.2706,3.2711,3.2748,3.2762,3.2769,3.2776,3.276,3.282,3.2826,3.2831,3.285,3.2858,3.2768,3.2768,3.2768,3.2767,0,3.2647,3.2668,3.2688,3.2704,3.2716,3.2741,3.2738,3.2751,3.2744,3.2744,3.2775,3.2781,3.2798,3.2807,3.28,3.2844,3.2836,3.2822,3.2797,3.2841,3.2859,3.2866,3.2771,3.277,3.277,3.2769,0,0,3.2713,3.2725,3.2733,3.274,3.2751,3.2767,3.2792,3.281,3.2822,3.2833,3.2854,3.2881,3.2868,3.2877,3.2871,3.289,3.2934,3.2873,3.2874,3.2885,3.2983,3.2994,3.3003,3.2926,3.2928,3.2929,3.2983,0,3.2763,3.2806,3.2801,3.2842,3.2862,3.2847,3.2869,3.2879,3.288,3.2897,3.2899,3.2918,3.2899,3.2905,3.2923,3.2925,3.2954,3.2921,3.2946,3.2947,3.2944,3.3012,3.3023,3.3074,3.299,3.2991,3.2992,0,3.2826,3.284,3.2884,3.2893,3.2901,3.2921,3.2937,3.2954,3.2965,3.2964,3.2976,3.2967,3.2993,3.2969,3.3005,3.2983,3.2993,3.2996,3.2998,3.2999,3.2972,3.3016,3.3089,3.3097,3.3002,3.3002,3.3001,0,3.287,3.29,3.2931,3.2938,3.2949,3.2963,3.2969,3.2978,3.299,3.3004,3.3012,3.3029,3.3039,3.3053,3.305,3.3032,3.3087,3.3062,3.3088,3.3088,3.3099,3.3099,3.3176,3.3106,3.3106,3.3106,3.3106,0,3.2926,3.2953,3.2951,3.297,3.3001,3.2995,3.3026,3.3029,3.3038,3.3058,3.3046,3.3065,3.306,3.3079,3.3077,3.3107,3.3112,3.3112,3.3112,3.3113,3.3113,3.312,3.3116,3.3108,3.3108,3.3107,3.3107,0,3.298,3.298,3.3012,3.3021,3.3024,3.3046,3.3054,3.3072,3.3073,3.3098,3.3103,3.3105,3.3127,3.3125,3.3149,3.3148,3.3186,3.3181,3.3183,3.3181,3.3208,3.3205,3.3291,3.3303,3.3226,3.3227,3.3227,0,3.3016,3.3037,3.3048,3.3061,3.3067,3.3087,3.3099,3.3095,3.3108,3.3123,3.314,3.316,3.3177,3.3212,3.3216,3.3234,3.323,3.3259,3.3232,3.3234,3.3231,3.323,3.3232,3.3264,3.3265,3.3265,3.3266,0,3.3079,3.3078,3.3096,3.3114,3.3129,3.3143,3.3156,3.3167,3.3164,3.3179,3.3202,3.3214,3.324,3.3261,3.3279,3.3285,3.3276,3.3274,3.3282,3.3284,3.3284,3.3284,3.3197,3.3272,3.3272,3.3271,3.3271,3.3271,3.3126,3.3144,3.3155,3.3176,3.3185,3.3198,3.3216,3.3219,3.3238,3.3258,3.3255,3.328,3.3292,3.3316,3.3324,3.3344,3.3333,3.3343,3.3346,3.3349,3.3352,3.3281,3.3347,3.3347,3.3347,3.3347,3.3346,0,3.3189,3.3196,3.3215,3.3233,3.325,3.324,3.3254,3.3269,3.3291,3.3303,3.332,3.3346,3.3367,3.3372,3.3393,3.3408,3.3404,3.3413,3.3412,3.3414,3.336,3.3352,3.3416,3.3416,3.3416,3.3416,3.3416,3.3416,3.3223,3.3255,3.3255,3.3291,3.3298,3.3323,3.3332,3.3344,3.3354,3.3384,3.3401,3.3405,3.3415,3.3436,3.3455,3.3456,3.3464,3.3475,3.3475,3.3424,3.3417,3.3411,3.3403,3.3477,3.3477,3.3527,3.3527,3.3528]},{"header":{"parameterUnit":"m.s-1","parameterCategory":1,"la1":30.2991,"la2":30.254,"lo1":-89.0895,"lo2":-89.0444,"dy":0.0017,"dx":0.0017,"nx":28,"ny":28,"refTime":"2024-12-12T03:00:00:Z","depth":0,"parameterNumber":3,"parameterNumberName":"V-component_of_WINDS"},"data":[0,0,0,0,0,0,0,0,0,0,0,0,0,0,0,0,0,0,0,0,0,0,0,0,0,0,0,0,0,0,0,0,0,0,0,0,0,0,0,0,0,0,0,0,0,0,0,0,0,0,0,0,0,0,0,0,0,0,-4.7497,-4.7498,0,-4.7595,-4.7596,-4.7597,-4.7588,-4.7587,-4.7585,-4.7584,-4.7682,-4.7686,-4.769,0,0,0,0,0,0,0,0,0,0,0,0,0,-4.7302,-4.7305,-4.7497,-4.7498,-4.7499,-4.7595,-4.7596,-4.7597,-4.7588,-4.7587,-4.7585,-4.7583,-4.7681,-4.7686,-4.7691,0,0,0,0,0,0,0,0,0,0,0,0,0,-4.7392,-4.7306,-4.7496,-4.7506,-4.7508,-4.7594,-4.7596,-4.7598,-4.7589,-4.7587,-4.7584,-4.7582,-4.768,-4.7685,-4.7691,-4.7774,0,0,-4.771,-4.7712,0,0,0,0,0,0,0,0,-4.7386,-4.7399,-4.7504,-4.7506,-4.7508,-4.7577,-4.7563,-4.7657,-4.7589,-4.7558,-4.7584,-4.7581,-4.7649,-4.7657,-4.7681,-4.7778,-4.7782,-4.771,-4.7714,-4.7717,-4.7718,0,0,0,0,0,0,0,-4.738,-4.7394,-4.7535,-4.7505,-4.7508,-4.7506,-4.7516,-4.7581,-4.7615,-4.7561,-4.756,-4.7572,-4.765,-4.7675,-4.7683,-4.7784,-4.771,-4.7715,-4.7719,-4.7722,-4.7956,-4.7958,0,0,0,0,0,0,-4.7372,-4.7389,-4.7532,-4.7538,-4.7441,-4.7511,-4.7523,-4.7557,-4.7614,-4.7621,-4.7574,-4.7571,-4.7666,-4.7676,-4.7686,-4.7788,-4.7717,-4.7722,-4.7726,-4.7953,-4.7956,-4.7959,0,0,0,0,0,0,-4.7368,-4.7385,-4.7528,-4.7464,-4.7482,-4.7517,-4.7556,-4.756,-4.7585,-4.7624,-4.763,-4.7593,-4.7664,-4.7678,-4.7753,-4.7791,-4.7725,-4.773,-4.795,-4.7954,-4.7958,-4.799,0,0,0,0,0,0,-4.7362,-4.7383,-4.7415,-4.7465,-4.7485,-4.7593,-4.7558,-4.7564,-4.7596,-4.7594,-4.7644,-4.765,-4.7664,-4.7744,-4.7759,-4.7798,-4.7735,-4.7947,-4.7952,-4.7956,-4.7986,-4.7995,-4.8002,0,0,0,0,0,-4.7355,-4.7419,-4.7416,-4.7434,-4.7526,-4.7595,-4.7607,-4.7622,-4.7599,-4.7631,-4.7657,-4.7649,-4.7784,-4.7751,-4.7768,-4.781,-4.7944,-4.795,-4.7956,-4.7982,-4.7993,-4.8002,0,0,0,0,0,0,-4.7372,-4.7426,-4.7423,-4.7505,-4.7546,-4.7594,-4.7634,-4.7632,-4.768,-4.7675,-4.7691,-4.7702,-4.7778,-4.7801,-4.7763,-4.7893,-4.7861,-4.7871,-4.7875,-4.7886,-4.7894,-4.7887,-4.774,0,0,0,0,0,-4.7385,-4.7438,-4.7482,-4.755,-4.7571,-4.7599,-4.763,-4.7638,-4.768,-4.7697,-4.7728,-4.7769,-4.7821,-4.7855,-4.7904,-4.7989,-4.8001,-4.8026,-4.8035,-4.8041,-4.8049,-4.8097,-4.811,-4.7978,-4.7978,-4.7978,0,0,-4.7413,-4.7449,-4.7481,-4.7554,-4.7587,-4.7641,-4.7614,-4.7671,-4.7712,-4.7706,-4.7778,-4.7803,-4.7849,-4.793,-4.7967,-4.7952,-4.8088,-4.8049,-4.8054,-4.8058,-4.8105,-4.8117,-4.8128,-4.7982,-4.7981,-4.7981,0,0,-4.7492,-4.7524,-4.7585,-4.7619,-4.7668,-4.7687,-4.7702,-4.7751,-4.7767,-4.784,-4.7838,-4.7886,-4.7974,-4.8009,-4.8037,-4.8131,-4.8126,-4.8147,-4.819,-4.8237,-4.8247,-4.8256,-4.8291,-4.8303,-4.8155,-4.8155,-4.8155,0,-4.752,-4.7601,-4.7616,-4.7676,-4.7708,-4.7707,-4.7769,-4.7801,-4.7864,-4.7887,-4.7869,-4.7982,-4.8013,-4.8103,-4.8126,-4.8149,-4.8167,-4.8141,-4.8244,-4.8254,-4.8263,-4.8296,-4.8309,-4.8157,-4.8157,-4.8157,-4.8157,0,-4.7634,-4.7691,-4.7734,-4.7797,-4.7834,-4.7895,-4.7919,-4.7956,-4.7961,-4.7982,-4.8057,-4.8095,-4.8154,-4.8175,-4.818,-4.8266,-4.8255,-4.8241,-4.8209,-4.8277,-4.8309,-4.8321,-4.816,-4.816,-4.8159,-4.8158,0,0,-4.7725,-4.7797,-4.7812,-4.7841,-4.7897,-4.7941,-4.8002,-4.806,-4.8091,-4.8135,-4.8187,-4.8263,-4.8251,-4.8284,-4.8293,-4.8334,-4.8408,-4.8315,-4.8316,-4.8332,-4.8506,-4.8516,-4.8531,-4.8405,-4.8407,-4.8409,-4.8502,0,-4.781,-4.7918,-4.7934,-4.803,-4.8083,-4.8083,-4.8136,-4.8176,-4.8198,-4.8246,-4.8269,-4.8324,-4.8303,-4.8323,-4.8364,-4.839,-4.8443,-4.8383,-4.8453,-4.8455,-4.8442,-4.8547,-4.8558,-4.8644,-4.8514,-4.8516,-4.8518,0,-4.7923,-4.7971,-4.8072,-4.8123,-4.8146,-4.8193,-4.8248,-4.8294,-4.834,-4.8353,-4.8391,-4.8396,-4.8459,-4.8425,-4.8513,-4.8472,-4.8502,-4.8519,-4.8523,-4.853,-4.8491,-4.8558,-4.8672,-4.8685,-4.8537,-4.8535,-4.8534,0,-4.798,-4.8071,-4.8143,-4.8168,-4.8228,-4.8262,-4.8288,-4.8332,-4.8366,-4.8415,-4.8437,-4.8492,-4.8522,-4.8565,-4.8584,-4.8557,-4.8672,-4.8638,-4.8684,-4.8684,-4.8708,-4.8707,-4.8829,-4.8727,-4.8726,-4.8726,-4.8726,0,-4.8073,-4.8135,-4.817,-4.8215,-4.8285,-4.8303,-4.8372,-4.8397,-4.8436,-4.8486,-4.8489,-4.8536,-4.8559,-4.8609,-4.8624,-4.8696,-4.8709,-4.8721,-4.8725,-4.8722,-4.872,-4.8741,-4.8736,-4.873,-4.8729,-4.8728,-4.8728,0,-4.8149,-4.8174,-4.8254,-4.8305,-4.8319,-4.8369,-4.8412,-4.8456,-4.8478,-4.8541,-4.8557,-4.8591,-4.8651,-4.8675,-4.8747,-4.8757,-4.884,-4.8838,-4.8825,-4.8826,-4.8871,-4.8867,-4.9012,-4.9032,-4.8915,-4.8917,-4.8917,0,-4.8207,-4.8255,-4.8311,-4.8346,-4.8374,-4.8428,-4.8464,-4.8484,-4.8521,-4.8578,-4.8615,-4.8675,-4.8724,-4.8819,-4.885,-4.8906,-4.8906,-4.8954,-4.8915,-4.891,-4.8908,-4.8905,-4.8911,-4.8961,-4.8962,-4.8963,-4.8964,0,-4.8307,-4.8318,-4.837,-4.8427,-4.8469,-4.8515,-4.8559,-4.8587,-4.8614,-4.8656,-4.8717,-4.8755,-4.883,-4.889,-4.8948,-4.8975,-4.8974,-4.8976,-4.899,-4.8987,-4.8977,-4.8984,-4.8845,-4.8972,-4.8971,-4.8971,-4.897,-4.897,-4.8376,-4.842,-4.8467,-4.8525,-4.8561,-4.8603,-4.8647,-4.8675,-4.8727,-4.879,-4.8799,-4.8865,-4.8911,-4.8989,-4.9019,-4.9071,-4.9059,-4.9078,-4.9084,-4.9088,-4.9092,-4.8969,-4.9082,-4.9081,-4.9081,-4.9081,-4.9081,0,-4.8478,-4.8509,-4.8562,-4.8625,-4.867,-4.8667,-4.8716,-4.8755,-4.8813,-4.8856,-4.8905,-4.8977,-4.9035,-4.9072,-4.913,-4.9165,-4.9166,-4.918,-4.9178,-4.9184,-4.9099,-4.9082,-4.9178,-4.9178,-4.9178,-4.9178,-4.9178,-4.9178,-4.8536,-4.8609,-4.8626,-4.8718,-4.8749,-4.8814,-4.8843,-4.8882,-4.8917,-4.8997,-4.9046,-4.907,-4.9111,-4.9173,-4.9226,-4.9236,-4.9257,-4.9272,-4.9281,-4.92,-4.919,-4.918,-4.9164,-4.9276,-4.9277,-4.9362,-4.9362,-4.9363]}]]